Terminal Aerodrome Forecast
Issued by NWS Charleston, WV

Current Version | Previous Version | Text Only | Print | Product List | Glossary Off
Versions: 1 2 3 4 5 6 7 8 9 10 11 12 13 14 15 16 17 18 19 20 21

000
FTUS41 KRLX 121500 AAA
TAFBKW
TAF AMD
KBKW 121519Z 1215/1312 20007KT P6SM FEW029
     FM121700 23004KT P6SM BKN035
     FM130200 VRB03KT P6SM SCT040
     FM130400 VRB03KT P6SM BKN060=

USA.gov is the U.S. government's official web portal to all federal, state and local government web resources and services.